Tracking 30070 objects as of 15-Jan-2025
HD Live streaming from Space Station
objects crossing your sky now

ATLAS F DEB

Track ATLAS F DEB now!
10-day predictions


NORAD ID: 29197
Int'l Code: 1978-047C
Perigee: 552.1 km
Apogee: 4,127.2 km
Inclination: 63.8 °
Period: 134.8 minutes
Semi major axis: 8710 km
RCS: 0.105 m2 (medium)
Launch date: May 13, 1978
Source: United States (US)
Launch site: AIR FORCE WESTERN TEST RANGE (AFWTR)

Note: This is SATELLITE DEBRIS
Your satellite tracking list
Your tracking list is empty




NASA's NSSDC Master Catalog

Two Line Element Set (TLE):
1 29197U 78047C   25015.42734605  .00174416  00000-0  11314+0 0  9990
2 29197  63.7945  11.2028 2052126  23.3413 114.8850 10.67883556697785
Source of the keplerian elements: AFSPC